QPF
0.01 0.01 0.01 0.01 0.00 0.00 0.01 0.01 0.00 0.00 0.00 0.00 0.00 0.00 0.00 0.00 0.00 0.00 0.00 0.00 0.01 0.01 0.02 0.03 0.05 0.04 0.03 0.03 0.04 0.04 0.02 0.02 0.03 0.02 0.01 0.01 0.01 0.01 0.02 0.02 0.03 0.02 0.02 0.03
0.02 0.01 0.01 0.01 0.00 0.00 0.00 0.00 0.00 0.00 0.00 0.00 0.00 0.00 0.00 0.00 0.00 0.00 0.01 0.00 0.01 0.01 0.01 0.02 0.02 0.01 0.01 0.01 0.02 0.03 0.02 0.02 0.02 0.02 0.02 0.02 0.01 0.01 0.01 0.02 0.02 0.03 0.03 0.03
0.03 0.01 0.02 0.03 0.00 0.00 0.00 0.00 0.00 0.00 0.00 0.00 0.00 0.00 0.00 0.00 0.01 0.01 0.01 0.01 0.01 0.01 0.02 0.02 0.02 0.01 0.00 0.00 0.00 0.01 0.01 0.01 0.01 0.01 0.01 0.01 0.01 0.01 0.01 0.02 0.03 0.03 0.03 0.03
0.04 0.03 0.04 0.01 0.00 0.00 0.00 0.00 0.00 0.00 0.00 0.00 0.00 0.00 0.00 0.00 0.01 0.01 0.01 0.01 0.02 0.02 0.02 0.02 0.01 0.01 0.00 0.00 0.00 0.00 0.00 0.00 0.00 0.00 0.01 0.01 0.01 0.01 0.01 0.02 0.03 0.03 0.04 0.04
0.07 0.05 0.02 0.00 0.00 0.00 0.00 0.00 0.00 0.00 0.00 0.00 0.00 0.00 0.00 0.00 0.00 0.01 0.01 0.02 0.02 0.02 0.02 0.02 0.01 0.01 0.00 0.00 0.00 0.00 0.00 0.00 0.00 0.00 0.01 0.01 0.01 0.01 0.01 0.02 0.03 0.03 0.04 0.05
0.09 0.06 0.02 0.00 0.00 0.00 0.00 0.00 0.00 0.00 0.00 0.00 0.00 0.01 0.00 0.00 0.01 0.01 0.01 0.01 0.01 0.02 0.02 0.02 0.01 0.01 0.01 0.01 0.01 0.00 0.01 0.01 0.01 0.01 0.01 0.01 0.01 0.01 0.02 0.02 0.02 0.03 0.03 0.04
0.08 0.05 0.02 0.01 0.00 0.00 0.01 0.01 0.00 0.00 0.00 0.01 0.01 0.02 0.01 0.01 0.01 0.01 0.01 0.01 0.01 0.01 0.01 0.01 0.01 0.01 0.01 0.01 0.01 0.00 0.01 0.01 0.02 0.01 0.01 0.01 0.01 0.02 0.02 0.02 0.02 0.02 0.02 0.03
0.05 0.06 0.04 0.01 0.01 0.01 0.01 0.01 0.01 0.00 0.00 0.01 0.01 0.01 0.01 0.01 0.01 0.01 0.01 0.01 0.01 0.01 0.01 0.01 0.01 0.01 0.01 0.01 0.01 0.01 0.02 0.02 0.02 0.02 0.02 0.02 0.01 0.02 0.02 0.02 0.03 0.02 0.02 0.02
0.04 0.05 0.03 0.01 0.01 0.01 0.01 0.00 0.00 0.01 0.00 0.00 0.01 0.01 0.01 0.01 0.01 0.01 0.01 0.01 0.02 0.02 0.01 0.01 0.01 0.01 0.01 0.01 0.01 0.01 0.03 0.03 0.03 0.03 0.03 0.03 0.02 0.03 0.03 0.03 0.03 0.03 0.02 0.02
0.02 0.02 0.02 0.02 0.01 0.01 0.01 0.01 0.00 0.00 0.00 0.00 0.00 0.00 0.00 0.01 0.01 0.01 0.02 0.02 0.02 0.02 0.01 0.01 0.01 0.02 0.02 0.02 0.02 0.03 0.04 0.04 0.04 0.03 0.03 0.03 0.02 0.03 0.03 0.03 0.04 0.03 0.02 0.02
0.02 0.02 0.01 0.02 0.02 0.02 0.01 0.01 0.01 0.01 0.01 0.01 0.00 0.00 0.00 0.00 0.01 0.01 0.02 0.02 0.02 0.02 0.02 0.01 0.01 0.01 0.02 0.02 0.03 0.03 0.03 0.03 0.03 0.03 0.03 0.03 0.03 0.03 0.04 0.04 0.04 0.04 0.03 0.02
0.02 0.02 0.02 0.02 0.02 0.01 0.01 0.02 0.02 0.01 0.01 0.01 0.01 0.01 0.01 0.01 0.01 0.02 0.02 0.01 0.02 0.02 0.01 0.01 0.01 0.01 0.02 0.02 0.02 0.02 0.02 0.02 0.02 0.02 0.02 0.02 0.03 0.03 0.03 0.03 0.04 0.03 0.03 0.02
0.02 0.01 0.01 0.01 0.01 0.01 0.01 0.02 0.02 0.01 0.01 0.01 0.01 0.01 0.01 0.01 0.01 0.02 0.02 0.02 0.02 0.02 0.01 0.01 0.01 0.02 0.01 0.01 0.01 0.02 0.02 0.02 0.02 0.02 0.02 0.02 0.02 0.02 0.02 0.03 0.03 0.03 0.03 0.02
0.01 0.01 0.01 0.01 0.01 0.01 0.01 0.01 0.01 0.01 0.01 0.01 0.01 0.01 0.01 0.01 0.01 0.02 0.02 0.02 0.02 0.02 0.01 0.01 0.01 0.02 0.02 0.01 0.01 0.02 0.02 0.03 0.03 0.02 0.02 0.02 0.02 0.02 0.02 0.02 0.02 0.03 0.03 0.02
0.01 0.01 0.01 0.01 0.01 0.01 0.01 0.01 0.01 0.00 0.00 0.00 0.00 0.00 0.01 0.01 0.01 0.02 0.02 0.02 0.02 0.01 0.01 0.01 0.01 0.01 0.01 0.01 0.01 0.02 0.02 0.03 0.03 0.02 0.02 0.02 0.02 0.02 0.02 0.02 0.02 0.02 0.03 0.03
0.02 0.02 0.02 0.02 0.03 0.02 0.02 0.01 0.01 0.01 0.01 0.01 0.01 0.01 0.01 0.01 0.01 0.02 0.02 0.02 0.02 0.02 0.01 0.01 0.02 0.02 0.02 0.02 0.02 0.02 0.02 0.03 0.03 0.02 0.02 0.02 0.02 0.02 0.02 0.02 0.02 0.02 0.02 0.03
0.02 0.02 0.02 0.02 0.02 0.02 0.02 0.02 0.01 0.01 0.01 0.01 0.01 0.01 0.01 0.01 0.01 0.01 0.01 0.02 0.02 0.02 0.02 0.02 0.03 0.02 0.02 0.02 0.02 0.02 0.02 0.03 0.03 0.02 0.02 0.02 0.02 0.02 0.02 0.03 0.03 0.03 0.03 0.03
0.01 0.02 0.02 0.02 0.02 0.02 0.01 0.01 0.01 0.01 0.01 0.01 0.01 0.01 0.01 0.01 0.01 0.01 0.01 0.01 0.01 0.01 0.01 0.02 0.02 0.02 0.02 0.03 0.03 0.03 0.03 0.03 0.03 0.02 0.02 0.02 0.02 0.03 0.03 0.03 0.03 0.03 0.03 0.04
0.01 0.01 0.01 0.01 0.01 0.01 0.01 0.00 0.00 0.00 0.00 0.01 0.01 0.01 0.01 0.01 0.01 0.01 0.01 0.01 0.01 0.01 0.01 0.01 0.02 0.02 0.02 0.03 0.03 0.03 0.03 0.03 0.03 0.03 0.02 0.02 0.02 0.03 0.03 0.03 0.03 0.03 0.03 0.04
0.01 0.00 0.00 0.00 0.00 0.00 0.00 0.00 0.00 0.00 0.01 0.01 0.01 0.01 0.01 0.01 0.01 0.01 0.01 0.00 0.00 0.01 0.01 0.01 0.01 0.02 0.02 0.03 0.03 0.03 0.03 0.03 0.03 0.03 0.02 0.02 0.03 0.03 0.03 0.03 0.03 0.03 0.04 0.04
0.00 0.00 0.00 0.01 0.01 0.01 0.00 0.00 0.00 0.00 0.00 0.01 0.01 0.01 0.01 0.01 0.01 0.01 0.01 0.00 0.00 0.00 0.01 0.01 0.01 0.02 0.03 0.03 0.03 0.03 0.03 0.03 0.03 0.03 0.03 0.03 0.03 0.03 0.03 0.03 0.04 0.04 0.04 0.04
0.01 0.01 0.01 0.01 0.01 0.01 0.01 0.01 0.01 0.01 0.01 0.01 0.01 0.01 0.01 0.01 0.01 0.00 0.00 0.00 0.01 0.01 0.01 0.01 0.02 0.03 0.03 0.03 0.03 0.03 0.03 0.03 0.03 0.03 0.03 0.03 0.03 0.03 0.03 0.03 0.04 0.04 0.04 0.03
0.02 0.02 0.02 0.02 0.02 0.01 0.01 0.01 0.01 0.01 0.01 0.00 0.00 0.00 0.01 0.01 0.01 0.01 0.01 0.00 0.01 0.01 0.01 0.02 0.02 0.03 0.04 0.03 0.03 0.03 0.03 0.03 0.03 0.03 0.03 0.02 0.03 0.03 0.03 0.03 0.04 0.03 0.03 0.03
0.02 0.02 0.02 0.02 0.02 0.01 0.01 0.01 0.01 0.01 0.00 0.00 0.00 0.00 0.01 0.01 0.01 0.00 0.01 0.01 0.01 0.02 0.02 0.02 0.03 0.03 0.03 0.03 0.03 0.03 0.02 0.02 0.02 0.02 0.02 0.03 0.03 0.03 0.03 0.03 0.03 0.03 0.03 0.03
0.02 0.02 0.02 0.02 0.02 0.02 0.02 0.02 0.01 0.01 0.01 0.00 0.00 0.00 0.00 0.01 0.01 0.01 0.00 0.01 0.01 0.01 0.02 0.02 0.03 0.03 0.03 0.03 0.02 0.02 0.02 0.02 0.02 0.02 0.02 0.03 0.03 0.03 0.03 0.03 0.03 0.03 0.03 0.03
0.01 0.01 0.02 0.02 0.02 0.02 0.02 0.02 0.02 0.02 0.01 0.01 0.01 0.00 0.00 0.00 0.01 0.01 0.01 0.01 0.01 0.02 0.02 0.02 0.03 0.03 0.03 0.02 0.02 0.02 0.02 0.02 0.02 0.02 0.02 0.02 0.02 0.02 0.02 0.02 0.03 0.03 0.03 0.03
0.01 0.01 0.01 0.01 0.01 0.01 0.01 0.01 0.02 0.02 0.02 0.02 0.01 0.01 0.01 0.01 0.01 0.01 0.01 0.02 0.02 0.02 0.02 0.02 0.02 0.02 0.02 0.02 0.02 0.02 0.02 0.02 0.02 0.02 0.02 0.02 0.02 0.02 0.02 0.02 0.02 0.03 0.03 0.03
MSLP
1023.96 1024.87 1025.74 1026.51 1027.09 1027.44 1027.55 1027.43 1027.11 1026.65 1026.12 1025.58 1025.07 1024.62 1024.21 1023.83 1023.43 1022.96 1022.38 1021.63 1020.72 1019.64 1018.41 1017.07 1015.66 1014.20 1012.74 1011.30 1009.89 1008.52 1007.19 1005.91 1004.68 1003.51 1002.42 1001.44 1000.56 999.81 999.17 998.63 998.18 997.78 997.42 997.06
1024.10 1024.83 1025.53 1026.14 1026.60 1026.89 1026.98 1026.89 1026.65 1026.30 1025.90 1025.48 1025.10 1024.75 1024.44 1024.12 1023.77 1023.32 1022.75 1022.01 1021.09 1020.00 1018.75 1017.39 1015.95 1014.46 1012.97 1011.50 1010.06 1008.68 1007.34 1006.07 1004.85 1003.70 1002.63 1001.65 1000.77 999.99 999.31 998.72 998.22 997.78 997.38 997.01
1024.18 1024.67 1025.13 1025.53 1025.84 1026.03 1026.09 1026.04 1025.90 1025.70 1025.48 1025.25 1025.04 1024.85 1024.66 1024.43 1024.14 1023.73 1023.16 1022.42 1021.49 1020.38 1019.12 1017.73 1016.27 1014.76 1013.25 1011.76 1010.32 1008.93 1007.60 1006.35 1005.16 1004.04 1002.99 1002.02 1001.14 1000.33 999.62 998.98 998.42 997.92 997.47 997.07
1024.18 1024.39 1024.59 1024.76 1024.89 1024.97 1025.02 1025.03 1025.01 1024.99 1024.96 1024.95 1024.94 1024.93 1024.87 1024.75 1024.51 1024.13 1023.57 1022.82 1021.88 1020.75 1019.47 1018.06 1016.58 1015.07 1013.55 1012.06 1010.63 1009.26 1007.97 1006.75 1005.60 1004.52 1003.52 1002.58 1001.71 1000.91 1000.17 999.49 998.88 998.32 997.82 997.38
1024.09 1024.04 1023.97 1023.92 1023.88 1023.88 1023.92 1024.00 1024.12 1024.28 1024.47 1024.67 1024.86 1025.01 1025.08 1025.04 1024.85 1024.49 1023.93 1023.16 1022.20 1021.05 1019.75 1018.35 1016.87 1015.36 1013.86 1012.40 1011.00 1009.67 1008.43 1007.26 1006.18 1005.18 1004.24 1003.36 1002.53 1001.75 1001.01 1000.31 999.66 999.06 998.51 998.01
1023.89 1023.61 1023.34 1023.10 1022.94 1022.88 1022.93 1023.09 1023.35 1023.68 1024.07 1024.46 1024.82 1025.11 1025.28 1025.31 1025.15 1024.78 1024.21 1023.42 1022.44 1021.28 1019.98 1018.58 1017.13 1015.65 1014.18 1012.76 1011.41 1010.15 1008.97 1007.89 1006.90 1005.98 1005.13 1004.34 1003.58 1002.85 1002.15 1001.46 1000.80 1000.16 999.56 999.01
1023.58 1023.14 1022.72 1022.37 1022.14 1022.06 1022.15 1022.40 1022.79 1023.28 1023.82 1024.37 1024.86 1025.24 1025.48 1025.54 1025.38 1025.01 1024.41 1023.61 1022.61 1021.45 1020.17 1018.80 1017.37 1015.94 1014.53 1013.17 1011.88 1010.69 1009.60 1008.62 1007.72 1006.92 1006.18 1005.49 1004.83 1004.18 1003.54 1002.89 1002.24 1001.59 1000.96 1000.36
1023.13 1022.61 1022.13 1021.74 1021.51 1021.47 1021.62 1021.97 1022.47 1023.08 1023.74 1024.39 1024.96 1025.40 1025.67 1025.73 1025.57 1025.18 1024.57 1023.75 1022.76 1021.61 1020.36 1019.03 1017.66 1016.29 1014.94 1013.64 1012.43 1011.32 1010.32 1009.43 1008.65 1007.96 1007.34 1006.77 1006.22 1005.67 1005.11 1004.51 1003.89 1003.25 1002.61 1001.98
1022.54 1022.03 1021.57 1021.22 1021.05 1021.08 1021.33 1021.77 1022.37 1023.07 1023.80 1024.51 1025.12 1025.58 1025.84 1025.89 1025.72 1025.32 1024.70 1023.90 1022.92 1021.82 1020.62 1019.34 1018.03 1016.72 1015.44 1014.21 1013.07 1012.03 1011.11 1010.31 1009.63 1009.05 1008.55 1008.10 1007.66 1007.22 1006.74 1006.22 1005.64 1005.03 1004.39 1003.74
1021.81 1021.38 1021.02 1020.78 1020.71 1020.86 1021.21 1021.75 1022.43 1023.19 1023.96 1024.69 1025.30 1025.75 1026.00 1026.04 1025.86 1025.46 1024.86 1024.09 1023.16 1022.11 1020.97 1019.76 1018.52 1017.26 1016.04 1014.86 1013.78 1012.80 1011.94 1011.22 1010.62 1010.14 1009.74 1009.40 1009.08 1008.73 1008.34 1007.89 1007.37 1006.79 1006.17 1005.53
1020.93 1020.65 1020.44 1020.36 1020.46 1020.74 1021.22 1021.85 1022.59 1023.38 1024.17 1024.89 1025.49 1025.91 1026.15 1026.18 1026.00 1025.62 1025.07 1024.35 1023.49 1022.51 1021.44 1020.30 1019.11 1017.91 1016.73 1015.59 1014.54 1013.61 1012.80 1012.13 1011.60 1011.19 1010.88 1010.63 1010.40 1010.14 1009.83 1009.45 1008.99 1008.45 1007.86 1007.24
1019.91 1019.82 1019.81 1019.93 1020.22 1020.67 1021.27 1021.99 1022.78 1023.60 1024.38 1025.08 1025.65 1026.05 1026.27 1026.31 1026.16 1025.83 1025.33 1024.68 1023.90 1023.00 1022.00 1020.92 1019.78 1018.62 1017.47 1016.36 1015.33 1014.41 1013.63 1013.00 1012.52 1012.17 1011.93 1011.75 1011.59 1011.41 1011.17 1010.85 1010.44 1009.95 1009.40 1008.81
1018.80 1018.92 1019.13 1019.48 1019.96 1020.58 1021.31 1022.12 1022.96 1023.79 1024.56 1025.23 1025.77 1026.16 1026.38 1026.44 1026.33 1026.05 1025.63 1025.07 1024.37 1023.54 1022.61 1021.58 1020.49 1019.35 1018.21 1017.11 1016.09 1015.19 1014.43 1013.83 1013.38 1013.08 1012.89 1012.77 1012.67 1012.55 1012.37 1012.10 1011.74 1011.30 1010.78 1010.24
1017.63 1017.97 1018.42 1018.99 1019.68 1020.46 1021.32 1022.21 1023.09 1023.93 1024.69 1025.34 1025.86 1026.24 1026.47 1026.56 1026.49 1026.29 1025.95 1025.46 1024.84 1024.09 1023.21 1022.23 1021.16 1020.05 1018.92 1017.82 1016.81 1015.92 1015.17 1014.59 1014.18 1013.92 1013.78 1013.71 1013.66 1013.59 1013.46 1013.24 1012.93 1012.53 1012.06 1011.56
1016.46 1017.02 1017.70 1018.49 1019.37 1020.31 1021.28 1022.24 1023.16 1024.01 1024.76 1025.40 1025.90 1026.28 1026.53 1026.65 1026.64 1026.50 1026.23 1025.82 1025.27 1024.58 1023.76 1022.82 1021.78 1020.68 1019.56 1018.48 1017.47 1016.60 1015.87 1015.32 1014.95 1014.72 1014.62 1014.60 1014.60 1014.57 1014.49 1014.32 1014.05 1013.69 1013.26 1012.80
1015.37 1016.12 1017.01 1017.99 1019.04 1020.12 1021.19 1022.21 1023.16 1024.02 1024.77 1025.39 1025.90 1026.28 1026.55 1026.71 1026.75 1026.67 1026.47 1026.12 1025.64 1025.00 1024.22 1023.32 1022.31 1021.24 1020.14 1019.08 1018.10 1017.25 1016.56 1016.04 1015.70 1015.52 1015.46 1015.47 1015.51 1015.53 1015.48 1015.35 1015.12 1014.81 1014.42 1014.01
1014.41 1015.34 1016.39 1017.53 1018.71 1019.90 1021.04 1022.12 1023.09 1023.96 1024.70 1025.33 1025.83 1026.23 1026.52 1026.71 1026.80 1026.77 1026.63 1026.34 1025.91 1025.33 1024.60 1023.74 1022.77 1021.74 1020.68 1019.66 1018.72 1017.91 1017.26 1016.78 1016.48 1016.33 1016.30 1016.34 1016.41 1016.46 1016.45 1016.35 1016.16 1015.88 1015.54 1015.16
1013.65 1014.71 1015.88 1017.13 1018.40 1019.66 1020.85 1021.95 1022.95 1023.82 1024.56 1025.19 1025.71 1026.12 1026.43 1026.66 1026.79 1026.81 1026.71 1026.49 1026.11 1025.58 1024.91 1024.11 1023.20 1022.22 1021.22 1020.26 1019.37 1018.61 1018.00 1017.56 1017.28 1017.15 1017.14 1017.20 1017.28 1017.35 1017.36 1017.29 1017.13 1016.89 1016.59 1016.25
1013.16 1014.29 1015.52 1016.82 1018.13 1019.41 1020.62 1021.73 1022.73 1023.60 1024.35 1024.99 1025.52 1025.95 1026.29 1026.55 1026.72 1026.79 1026.74 1026.57 1026.25 1025.79 1025.18 1024.45 1023.62 1022.72 1021.80 1020.90 1020.07 1019.36 1018.79 1018.37 1018.10 1017.98 1017.96 1018.01 1018.08 1018.14 1018.16 1018.11 1017.99 1017.78 1017.52 1017.22
1012.94 1014.08 1015.32 1016.61 1017.91 1019.18 1020.38 1021.48 1022.46 1023.34 1024.09 1024.74 1025.29 1025.74 1026.12 1026.41 1026.61 1026.72 1026.73 1026.61 1026.36 1025.97 1025.45 1024.80 1024.06 1023.25 1022.41 1021.59 1020.83 1020.16 1019.61 1019.20 1018.92 1018.77 1018.71 1018.73 1018.77 1018.81 1018.82 1018.78 1018.68 1018.51 1018.29 1018.03
1013.01 1014.11 1015.29 1016.53 1017.78 1018.99 1020.15 1021.22 1022.19 1023.06 1023.82 1024.48 1025.05 1025.53 1025.94 1026.26 1026.51 1026.66 1026.71 1026.65 1026.46 1026.15 1025.71 1025.16 1024.51 1023.80 1023.05 1022.31 1021.61 1020.97 1020.44 1020.01 1019.70 1019.49 1019.37 1019.33 1019.32 1019.32 1019.31 1019.27 1019.18 1019.05 1018.88 1018.67
1013.34 1014.35 1015.44 1016.59 1017.75 1018.89 1019.99 1021.02 1021.97 1022.83 1023.60 1024.27 1024.86 1025.37 1025.80 1026.15 1026.42 1026.61 1026.70 1026.69 1026.56 1026.32 1025.97 1025.51 1024.97 1024.35 1023.69 1023.02 1022.37 1021.76 1021.22 1020.76 1020.39 1020.11 1019.92 1019.79 1019.71 1019.66 1019.62 1019.58 1019.51 1019.42 1019.30 1019.15
1013.88 1014.78 1015.76 1016.80 1017.86 1018.91 1019.95 1020.93 1021.86 1022.71 1023.47 1024.16 1024.76 1025.28 1025.73 1026.10 1026.39 1026.59 1026.71 1026.74 1026.67 1026.49 1026.22 1025.84 1025.39 1024.86 1024.28 1023.67 1023.06 1022.47 1021.91 1021.41 1020.98 1020.62 1020.34 1020.13 1019.97 1019.87 1019.80 1019.74 1019.70 1019.65 1019.59 1019.50
1014.58 1015.37 1016.24 1017.16 1018.12 1019.09 1020.06 1021.00 1021.89 1022.73 1023.49 1024.18 1024.78 1025.31 1025.75 1026.12 1026.41 1026.62 1026.75 1026.80 1026.76 1026.63 1026.42 1026.12 1025.75 1025.30 1024.79 1024.23 1023.66 1023.07 1022.50 1021.96 1021.46 1021.03 1020.66 1020.36 1020.14 1019.98 1019.88 1019.82 1019.80 1019.79 1019.79 1019.78
1015.38 1016.07 1016.84 1017.66 1018.54 1019.44 1020.35 1021.24 1022.10 1022.91 1023.66 1024.33 1024.93 1025.44 1025.87 1026.22 1026.49 1026.68 1026.81 1026.86 1026.84 1026.74 1026.57 1026.33 1026.01 1025.63 1025.18 1024.68 1024.13 1023.55 1022.97 1022.39 1021.84 1021.34 1020.90 1020.53 1020.25 1020.04 1019.92 1019.86 1019.86 1019.90 1019.96 1020.02
1016.23 1016.85 1017.54 1018.29 1019.09 1019.93 1020.78 1021.63 1022.46 1023.24 1023.96 1024.61 1025.17 1025.65 1026.05 1026.36 1026.60 1026.76 1026.86 1026.90 1026.88 1026.80 1026.66 1026.46 1026.20 1025.86 1025.46 1025.00 1024.48 1023.92 1023.33 1022.73 1022.14 1021.59 1021.09 1020.67 1020.34 1020.10 1019.96 1019.90 1019.92 1020.00 1020.11 1020.24
1017.09 1017.67 1018.30 1018.99 1019.74 1020.52 1021.33 1022.13 1022.91 1023.65 1024.33 1024.94 1025.46 1025.89 1026.24 1026.51 1026.70 1026.83 1026.90 1026.92 1026.89 1026.82 1026.70 1026.53 1026.31 1026.01 1025.66 1025.23 1024.74 1024.19 1023.60 1022.99 1022.38 1021.80 1021.26 1020.80 1020.43 1020.17 1020.01 1019.96 1019.99 1020.10 1020.26 1020.43
Thickness
5473 5478 5474 5478 5480 5474 5477 5483 5487 5503 5507 5532 5535 5530 5527 5524 5521 5520 5519 5518 5515 5512 5509 5505 5503 5501 5499 5495 5491 5488 5483 5480 5477 5476 5474 5473 5471 5470 5468 5466 5465 5462 5460 5459
5459 5465 5468 5473 5476 5477 5479 5484 5486 5495 5506 5522 5521 5518 5516 5514 5513 5513 5513 5511 5509 5506 5502 5499 5496 5494 5490 5487 5483 5479 5475 5472 5470 5468 5467 5465 5464 5462 5460 5459 5457 5454 5452 5451
5448 5453 5458 5466 5481 5481 5479 5482 5487 5496 5514 5511 5508 5508 5507 5505 5505 5505 5506 5504 5502 5499 5496 5492 5489 5486 5482 5479 5475 5471 5468 5465 5463 5461 5459 5458 5457 5455 5453 5451 5449 5447 5446 5443
5431 5439 5451 5485 5487 5487 5485 5487 5487 5495 5501 5500 5501 5501 5500 5499 5497 5497 5497 5496 5493 5490 5487 5484 5481 5477 5474 5470 5467 5463 5461 5459 5456 5454 5452 5451 5449 5447 5446 5444 5443 5441 5440 5437
5424 5431 5446 5471 5474 5472 5472 5478 5483 5485 5489 5488 5488 5489 5491 5493 5491 5490 5488 5486 5483 5481 5478 5475 5472 5469 5466 5462 5458 5455 5453 5451 5449 5447 5446 5444 5443 5441 5440 5438 5437 5435 5433 5431
5417 5429 5444 5470 5466 5464 5465 5468 5477 5476 5479 5477 5474 5474 5484 5485 5481 5480 5478 5476 5473 5471 5468 5465 5463 5460 5457 5453 5450 5447 5445 5443 5442 5440 5438 5437 5436 5434 5433 5431 5430 5429 5428 5425
5414 5420 5435 5450 5451 5457 5458 5467 5470 5467 5468 5466 5465 5469 5472 5470 5469 5468 5467 5465 5463 5461 5458 5456 5453 5450 5447 5445 5442 5440 5438 5436 5434 5433 5431 5430 5428 5427 5425 5424 5424 5422 5422 5421
5406 5414 5431 5441 5438 5442 5449 5454 5455 5456 5457 5456 5455 5456 5457 5457 5457 5456 5455 5454 5452 5450 5448 5445 5442 5440 5438 5436 5434 5432 5430 5428 5427 5425 5424 5423 5421 5420 5418 5417 5416 5416 5417 5417
5409 5423 5429 5429 5433 5436 5438 5440 5443 5444 5444 5444 5444 5444 5445 5445 5444 5443 5443 5442 5441 5439 5437 5435 5432 5430 5428 5427 5425 5423 5421 5420 5419 5418 5416 5414 5413 5412 5411 5410 5409 5410 5410 5411
5399 5411 5418 5420 5422 5424 5427 5428 5430 5431 5432 5433 5433 5433 5433 5433 5433 5432 5432 5431 5430 5428 5427 5425 5423 5421 5419 5417 5416 5414 5413 5412 5411 5410 5409 5408 5406 5405 5404 5402 5402 5402 5402 5403
5393 5402 5407 5412 5413 5415 5417 5418 5419 5419 5421 5422 5422 5422 5422 5422 5422 5421 5421 5420 5419 5417 5416 5415 5413 5412 5410 5408 5407 5406 5405 5404 5403 5403 5401 5401 5400 5398 5397 5396 5394 5395 5396 5395
5397 5402 5401 5405 5407 5407 5408 5410 5410 5410 5410 5411 5411 5410 5410 5410 5410 5410 5409 5409 5408 5407 5406 5404 5403 5402 5400 5399 5398 5397 5397 5396 5395 5394 5394 5394 5394 5394 5394 5391 5392 5391 5390 5390
5393 5396 5395 5397 5398 5399 5399 5400 5400 5400 5399 5399 5399 5399 5399 5398 5399 5398 5398 5398 5397 5397 5396 5394 5393 5392 5391 5390 5389 5388 5388 5388 5387 5387 5387 5387 5387 5387 5388 5389 5387 5386 5386 5385
5383 5385 5386 5388 5387 5388 5388 5388 5388 5387 5387 5388 5388 5388 5388 5387 5388 5387 5387 5388 5388 5387 5386 5385 5384 5383 5382 5382 5382 5382 5381 5382 5381 5380 5380 5380 5379 5379 5379 5380 5381 5382 5381 5380
5375 5377 5378 5378 5378 5378 5377 5377 5376 5376 5376 5377 5377 5377 5377 5377 5377 5377 5377 5378 5378 5377 5377 5376 5376 5375 5375 5375 5376 5376 5376 5376 5375 5374 5374 5373 5373 5372 5372 5371 5372 5372 5374 5374
5366 5368 5368 5368 5368 5367 5366 5366 5365 5365 5366 5366 5366 5366 5367 5367 5367 5367 5367 5367 5367 5367 5367 5367 5367 5367 5368 5369 5370 5370 5370 5371 5370 5369 5368 5368 5367 5366 5365 5364 5364 5364 5365 5366
5357 5358 5358 5357 5356 5356 5355 5355 5355 5355 5355 5356 5356 5357 5357 5357 5357 5357 5356 5357 5357 5357 5357 5358 5358 5360 5362 5363 5363 5363 5363 5363 5364 5363 5362 5361 5359 5358 5358 5357 5357 5358 5358 5359
5348 5349 5349 5349 5348 5346 5345 5345 5345 5346 5346 5346 5347 5347 5346 5346 5346 5346 5346 5346 5348 5349 5349 5350 5351 5354 5355 5356 5356 5356 5356 5356 5356 5355 5355 5354 5353 5353 5352 5352 5352 5352 5353 5354
5338 5340 5340 5340 5339 5338 5337 5336 5336 5337 5337 5337 5336 5336 5335 5335 5336 5336 5337 5338 5340 5341 5342 5343 5346 5348 5348 5348 5349 5349 5350 5349 5349 5349 5348 5349 5348 5348 5347 5347 5348 5348 5349 5351
5329 5330 5330 5329 5329 5329 5327 5327 5327 5327 5327 5327 5327 5326 5326 5326 5327 5328 5329 5330 5331 5332 5334 5336 5339 5340 5341 5341 5342 5343 5343 5343 5343 5343 5343 5342 5342 5342 5343 5343 5344 5345 5346 5347
5318 5319 5319 5318 5318 5318 5318 5318 5317 5317 5318 5318 5318 5317 5317 5317 5318 5320 5322 5324 5325 5326 5329 5332 5333 5334 5334 5335 5337 5338 5338 5338 5338 5338 5338 5338 5337 5338 5339 5339 5340 5342 5343 5344
5306 5307 5307 5308 5308 5307 5307 5308 5308 5309 5309 5309 5309 5309 5309 5310 5311 5313 5314 5315 5318 5321 5323 5325 5326 5328 5330 5332 5332 5332 5333 5333 5333 5332 5332 5332 5333 5334 5335 5336 5336 5338 5339 5340
5295 5296 5297 5297 5297 5296 5297 5298 5299 5299 5299 5299 5300 5301 5302 5302 5304 5306 5308 5310 5312 5315 5317 5319 5321 5325 5327 5327 5326 5326 5327 5327 5327 5327 5327 5328 5328 5329 5330 5331 5333 5334 5335 5337
5285 5286 5286 5286 5287 5288 5288 5288 5289 5290 5290 5291 5293 5294 5295 5296 5298 5299 5300 5303 5307 5310 5311 5313 5317 5319 5321 5320 5319 5319 5320 5321 5321 5321 5322 5323 5324 5325 5327 5328 5329 5331 5333 5334
5274 5274 5275 5276 5278 5278 5279 5280 5281 5282 5283 5284 5285 5287 5288 5290 5290 5292 5294 5297 5300 5303 5304 5307 5310 5312 5311 5312 5312 5313 5314 5314 5315 5316 5318 5319 5321 5322 5323 5324 5326 5328 5329 5331
5264 5265 5266 5267 5268 5269 5271 5273 5274 5275 5277 5278 5280 5281 5282 5284 5285 5287 5289 5292 5294 5297 5298 5299 5300 5302 5303 5305 5306 5306 5307 5309 5310 5311 5313 5315 5316 5318 5319 5320 5322 5324 5326 5328
5256 5258 5259 5260 5262 5263 5264 5266 5267 5268 5269 5271 5272 5274 5276 5277 5279 5281 5283 5285 5287 5289 5291 5293 5294 5296 5297 5298 5300 5301 5302 5304 5305 5307 5309 5310 5312 5314 5316 5317 5319 5321 5322 5325